Radiation Dose at Monitoring Post of Fukushima Daini Nuclear Power Station
Date,Time,MP-1(microSv/h),MP-2(microSv/h),MP-3(microSv/h),MP-4(microSv/h),MP-5(microSv/h),MP-6(microSv/h),MP-7(microSv/h),Wind Direction,Wind Velocity(m/s),Rain
2022/10/17,00:00,0.152,0.136,0.221,0.212,0.212,0.120,0.077,south,1.9,No
2022/10/17,00:10,0.152,0.136,0.223,0.213,0.215,0.121,0.077,south,2.4,No
2022/10/17,00:20,0.153,0.137,0.221,0.211,0.213,0.121,0.077,south,2.2,No
2022/10/17,00:30,0.152,0.136,0.222,0.213,0.215,0.121,0.077,south,1.8,No
2022/10/17,00:40,0.152,0.136,0.221,0.211,0.212,0.119,0.077,south,2.7,No
2022/10/17,00:50,0.151,0.135,0.221,0.213,0.215,0.121,0.078,south,2.1,No
2022/10/17,01:00,0.151,0.137,0.222,0.212,0.214,0.120,0.077,south,2.6,No
2022/10/17,01:10,0.151,0.136,0.220,0.213,0.215,0.120,0.078,south,3.9,No
2022/10/17,01:20,0.153,0.137,0.223,0.212,0.213,0.120,0.077,south,4.9,No
2022/10/17,01:30,0.151,0.136,0.220,0.212,0.215,0.121,0.077,south,5.5,No
2022/10/17,01:40,0.153,0.137,0.223,0.213,0.213,0.120,0.078,south,5.7,No
2022/10/17,01:50,0.151,0.137,0.221,0.213,0.215,0.121,0.077,south,5.6,No
2022/10/17,02:00,0.152,0.137,0.222,0.212,0.213,0.120,0.077,south,5.2,No
2022/10/17,02:10,0.152,0.137,0.221,0.211,0.215,0.121,0.076,south,5.7,No
2022/10/17,02:20,0.152,0.136,0.222,0.212,0.213,0.120,0.078,south,6.0,No
2022/10/17,02:30,0.152,0.137,0.224,0.211,0.214,0.120,0.077,south,6.6,No
2022/10/17,02:40,0.151,0.136,0.222,0.213,0.214,0.121,0.077,south,6.1,No
2022/10/17,02:50,0.151,0.137,0.222,0.212,0.215,0.120,0.076,south,5.7,No
2022/10/17,03:00,0.151,0.136,0.220,0.213,0.214,0.121,0.077,south,6.4,No
2022/10/17,03:10,0.151,0.136,0.221,0.212,0.215,0.119,0.077,south,6.2,No
2022/10/17,03:20,0.152,0.137,0.221,0.212,0.214,0.121,0.078,south,7.0,No
2022/10/17,03:30,0.152,0.136,0.220,0.212,0.215,0.120,0.077,south,7.4,No
2022/10/17,03:40,0.151,0.137,0.222,0.212,0.212,0.120,0.077,south,6.5,No
2022/10/17,03:50,0.152,0.136,0.220,0.214,0.213,0.120,0.077,south-southwest,4.1,No
2022/10/17,04:00,0.152,0.136,0.221,0.211,0.213,0.120,0.077,south,4.9,No
2022/10/17,04:10,0.151,0.136,0.221,0.213,0.215,0.119,0.077,south,5.3,No
2022/10/17,04:20,0.151,0.137,0.221,0.211,0.213,0.120,0.077,south,5.8,No
2022/10/17,04:30,0.152,0.136,0.221,0.213,0.215,0.120,0.076,south,5.6,No
2022/10/17,04:40,0.151,0.136,0.221,0.211,0.213,0.120,0.077,south,5.0,No
2022/10/17,04:50,0.151,0.137,0.221,0.212,0.215,0.119,0.077,south,4.3,No
2022/10/17,05:00,0.151,0.136,0.221,0.211,0.213,0.120,0.076,south-southwest,4.3,No
2022/10/17,05:10,0.151,0.136,0.222,0.212,0.214,0.120,0.077,south-southwest,4.0,No
2022/10/17,05:20,0.151,0.137,0.221,0.213,0.214,0.120,0.076,southwest,4.3,No
2022/10/17,05:30,0.151,0.136,0.222,0.211,0.214,0.121,0.077,south-southwest,4.1,No
2022/10/17,05:40,0.151,0.137,0.221,0.212,0.213,0.120,0.076,southwest,3.8,No
2022/10/17,05:50,0.153,0.137,0.222,0.211,0.215,0.120,0.077,south-southwest,4.0,No
2022/10/17,06:00,0.152,0.136,0.221,0.213,0.213,0.119,0.077,south,4.0,No
2022/10/17,06:10,0.152,0.136,0.221,0.211,0.215,0.120,0.077,south-southeast,4.2,No
2022/10/17,06:20,0.150,0.136,0.221,0.213,0.213,0.121,0.077,south,3.9,No
2022/10/17,06:30,0.152,0.137,0.220,0.211,0.214,0.120,0.077,south,4.0,No
2022/10/17,06:40,0.151,0.135,0.221,0.212,0.213,0.119,0.077,south,3.8,No
2022/10/17,06:50,0.151,0.136,0.219,0.211,0.214,0.120,0.076,south-southwest,3.8,No
2022/10/17,07:00,0.151,0.136,0.221,0.212,0.212,0.119,0.077,south-southwest,3.7,No
2022/10/17,07:10,0.151,0.136,0.221,0.210,0.214,0.120,0.077,south-southwest,3.7,No
2022/10/17,07:20,0.151,0.136,0.221,0.212,0.213,0.120,0.077,southwest,3.2,No
2022/10/17,07:30,0.151,0.136,0.219,0.210,0.214,0.119,0.078,south-southwest,3.2,No
2022/10/17,07:40,0.150,0.137,0.220,0.210,0.211,0.120,0.076,south-southwest,3.3,No
2022/10/17,07:50,0.151,0.135,0.219,0.212,0.214,0.119,0.077,southwest,4.0,No
2022/10/17,08:00,0.152,0.135,0.221,0.210,0.214,0.120,0.077,south-southwest,4.1,No
2022/10/17,08:10,0.151,0.136,0.220,0.211,0.212,0.121,0.076,south-southwest,3.6,No
2022/10/17,08:20,0.151,0.136,0.222,0.212,0.215,0.120,0.076,south,4.1,No
2022/10/17,08:30,0.150,0.136,0.219,0.209,0.213,0.120,0.076,south,3.9,No
2022/10/17,08:40,0.152,0.136,0.221,0.212,0.211,0.120,0.076,south,4.6,No
2022/10/17,08:50,0.150,0.137,0.221,0.211,0.214,0.120,0.077,south,5.7,No
2022/10/17,09:00,0.150,0.136,0.219,0.210,0.212,0.120,0.076,south,5.6,No
2022/10/17,09:10,0.151,0.136,0.220,0.213,0.210,0.118,0.076,south,5.2,No
2022/10/17,09:20,0.150,0.137,0.222,0.211,0.215,0.121,0.076,south-southwest,4.5,No
2022/10/17,09:30,0.150,0.136,0.218,0.209,0.213,0.120,0.076,south,5.1,No
2022/10/17,09:40,0.151,0.135,0.222,0.212,0.212,0.119,0.077,south,5.0,No
2022/10/17,09:50,0.151,0.138,0.221,0.212,0.213,0.119,0.076,south,4.6,No
2022/10/17,10:00,0.149,0.136,0.220,0.211,0.216,0.121,0.077,south,5.1,No
2022/10/17,10:10,0.152,0.135,0.221,0.212,0.214,0.120,0.077,south,5.7,No
2022/10/17,10:20,0.152,0.138,0.223,0.213,0.211,0.119,0.077,south,6.2,No
2022/10/17,10:30,0.151,0.136,0.220,0.210,0.214,0.119,0.077,south,6.1,No
2022/10/17,10:40,0.150,0.136,0.219,0.211,0.214,0.120,0.077,south,6.3,No
2022/10/17,10:50,0.151,0.136,0.222,0.213,0.212,0.120,0.076,south,5.3,No
2022/10/17,11:00,0.151,0.137,0.220,0.213,0.211,0.120,0.077,south-southwest,4.9,No
2022/10/17,11:10,0.150,0.136,0.220,0.210,0.212,0.121,0.076,south-southwest,5.0,No
2022/10/17,11:20,0.150,0.136,0.219,0.210,0.215,0.120,0.077,south,5.1,No
2022/10/17,11:30,0.152,0.136,0.223,0.212,0.212,0.120,0.077,south,4.7,No
2022/10/17,11:40,0.152,0.135,0.221,0.212,0.212,0.119,0.076,south,4.8,No
2022/10/17,11:50,0.151,0.137,0.220,0.211,0.211,0.119,0.076,south,4.5,No
2022/10/17,12:00,0.150,0.136,0.219,0.210,0.211,0.120,0.076,south,4.4,No
2022/10/17,12:10,0.149,0.137,0.220,0.212,0.212,0.120,0.078,south,4.8,No
2022/10/17,12:20,0.152,0.135,0.223,0.213,0.214,0.120,0.077,south,6.3,No
2022/10/17,12:30,0.151,0.136,0.221,0.211,0.213,0.120,0.076,south-southwest,5.3,No
2022/10/17,12:40,0.151,0.137,0.219,0.211,0.211,0.120,0.076,south,4.6,No
2022/10/17,12:50,0.150,0.135,0.222,0.212,0.215,0.120,0.076,south-southwest,4.6,Yes
2022/10/17,13:00,0.151,0.136,0.222,0.212,0.215,0.120,0.077,south,4.0,No
2022/10/17,13:10,0.151,0.136,0.219,0.210,0.213,0.120,0.076,south-southeast,4.5,No
2022/10/17,13:20,0.151,0.136,0.220,0.214,0.212,0.120,0.077,south,6.0,No
2022/10/17,13:30,0.152,0.136,0.222,0.213,0.215,0.120,0.078,south,5.9,No
2022/10/17,13:40,0.153,0.138,0.221,0.211,0.214,0.120,0.076,south,5.1,No
2022/10/17,13:50,0.150,0.136,0.219,0.212,0.211,0.120,0.077,south-southeast,5.6,No
2022/10/17,14:00,0.151,0.136,0.222,0.213,0.214,0.120,0.077,south,4.3,No
2022/10/17,14:10,0.152,0.137,0.221,0.212,0.214,0.119,0.076,south,4.1,No
2022/10/17,14:20,0.150,0.136,0.220,0.212,0.212,0.121,0.076,south,3.6,No
2022/10/17,14:30,0.151,0.135,0.222,0.214,0.213,0.119,0.077,south,2.9,Yes
2022/10/17,14:40,0.153,0.137,0.221,0.211,0.215,0.121,0.076,south,2.4,No
2022/10/17,14:50,0.150,0.137,0.219,0.212,0.213,0.120,0.076,south-southeast,2.5,Yes
2022/10/17,15:00,0.152,0.136,0.223,0.214,0.212,0.119,0.077,south,2.8,No
2022/10/17,15:10,0.152,0.137,0.222,0.212,0.214,0.120,0.076,south,2.1,No
2022/10/17,15:20,0.151,0.137,0.219,0.211,0.213,0.119,0.077,south-southwest,1.4,No
2022/10/17,15:30,0.151,0.135,0.221,0.214,0.212,0.120,0.077,southwest,1.2,Yes
2022/10/17,15:40,0.153,0.137,0.221,0.212,0.215,0.121,0.076,west,1.2,No
2022/10/17,15:50,0.151,0.136,0.220,0.212,0.216,0.119,0.077,west-northwest,1.6,No
2022/10/17,16:00,0.151,0.136,0.222,0.214,0.213,0.121,0.077,west-northwest,2.6,No
2022/10/17,16:10,0.152,0.137,0.222,0.213,0.213,0.121,0.076,north,2.4,No
2022/10/17,16:20,0.151,0.136,0.221,0.211,0.214,0.120,0.077,north,3.0,Yes
2022/10/17,16:30,0.152,0.137,0.223,0.214,0.211,0.120,0.078,north-northwest,2.0,Yes
2022/10/17,16:40,0.152,0.137,0.221,0.212,0.215,0.120,0.076,north-northwest,2.9,Yes
2022/10/17,16:50,0.152,0.136,0.222,0.212,0.216,0.121,0.077,north-northwest,2.6,Yes
2022/10/17,17:00,0.153,0.138,0.223,0.214,0.211,0.121,0.077,north-northwest,1.7,Yes
2022/10/17,17:10,0.152,0.136,0.221,0.212,0.215,0.120,0.077,north,2.1,Yes
2022/10/17,17:20,0.152,0.138,0.223,0.215,0.215,0.122,0.079,north,4.5,Yes
2022/10/17,17:30,0.155,0.139,0.222,0.213,0.215,0.123,0.079,north-northwest,5.0,Yes
2022/10/17,17:40,0.153,0.139,0.225,0.215,0.218,0.123,0.081,northeast,4.7,Yes
2022/10/17,17:50,0.156,0.140,0.223,0.215,0.215,0.124,0.081,north-northwest,2.4,Yes
2022/10/17,18:00,0.154,0.140,0.224,0.214,0.217,0.124,0.081,north-northwest,1.3,Yes
2022/10/17,18:10,0.156,0.141,0.223,0.217,0.217,0.125,0.082,north-northeast,1.1,Yes
2022/10/17,18:20,0.156,0.141,0.223,0.215,0.218,0.126,0.081,north-northeast,3.8,Yes
2022/10/17,18:30,0.155,0.141,0.224,0.216,0.217,0.125,0.082,north-northeast,0.9,Yes
2022/10/17,18:40,0.156,0.140,0.224,0.214,0.216,0.125,0.082,northwest,0.6,Yes
2022/10/17,18:50,0.154,0.141,0.224,0.215,0.218,0.124,0.082,north-northwest,2.6,Yes
2022/10/17,19:00,0.155,0.140,0.222,0.215,0.215,0.125,0.082,east-northeast,3.8,Yes
2022/10/17,19:10,0.155,0.142,0.224,0.214,0.217,0.126,0.083,west-northwest,1.3,Yes
2022/10/17,19:20,0.156,0.140,0.222,0.214,0.217,0.125,0.083,north,1.6,Yes
2022/10/17,19:30,0.155,0.143,0.223,0.215,0.217,0.126,0.082,north-northeast,3.5,Yes
2022/10/17,19:40,0.156,0.140,0.221,0.215,0.217,0.125,0.083,northwest,1.6,Yes
2022/10/17,19:50,0.156,0.142,0.222,0.214,0.217,0.125,0.084,west,3.2,Yes
2022/10/17,20:00,0.155,0.142,0.221,0.213,0.217,0.124,0.084,west,5.1,Yes
2022/10/17,20:10,0.155,0.141,0.223,0.213,0.217,0.125,0.084,west-northwest,6.6,Yes
2022/10/17,20:20,0.154,0.140,0.221,0.215,0.218,0.125,0.084,west-northwest,6.2,Yes
2022/10/17,20:30,0.155,0.140,0.221,0.213,0.216,0.124,0.082,west-northwest,6.5,Yes
2022/10/17,20:40,0.154,0.140,0.220,0.215,0.218,0.124,0.083,west-northwest,6.8,Yes
2022/10/17,20:50,0.156,0.142,0.222,0.214,0.218,0.127,0.084,northwest,5.9,Yes
2022/10/17,21:00,0.156,0.142,0.223,0.215,0.219,0.126,0.086,west-northwest,6.8,Yes
2022/10/17,21:10,0.155,0.142,0.222,0.215,0.218,0.127,0.086,west-northwest,5.1,Yes
2022/10/17,21:20,0.157,0.142,0.224,0.215,0.218,0.127,0.085,northwest,4.6,Yes
2022/10/17,21:30,0.155,0.142,0.222,0.215,0.218,0.126,0.085,northwest,5.5,Yes
2022/10/17,21:40,0.156,0.142,0.222,0.214,0.217,0.125,0.084,northwest,6.4,Yes
2022/10/17,21:50,0.154,0.141,0.221,0.213,0.218,0.125,0.084,northwest,5.9,Yes
2022/10/17,22:00,0.154,0.140,0.221,0.213,0.215,0.123,0.082,northwest,4.6,Yes
2022/10/17,22:10,0.152,0.139,0.220,0.212,0.217,0.124,0.082,northwest,2.7,Yes
2022/10/17,22:20,0.154,0.140,0.219,0.210,0.216,0.123,0.083,northwest,2.6,Yes
2022/10/17,22:30,0.154,0.139,0.221,0.212,0.217,0.124,0.083,northwest,2.5,Yes
2022/10/17,22:40,0.154,0.140,0.221,0.212,0.216,0.124,0.084,northwest,2.0,Yes
2022/10/17,22:50,0.153,0.140,0.220,0.212,0.217,0.123,0.082,northwest,1.2,Yes
2022/10/17,23:00,0.153,0.138,0.218,0.211,0.215,0.122,0.081,west-northwest,2.9,Yes
2022/10/17,23:10,0.150,0.137,0.217,0.209,0.215,0.121,0.080,west,0.6,Yes
2022/10/17,23:20,0.151,0.137,0.217,0.210,0.214,0.120,0.079,-,CALM,Yes
2022/10/17,23:30,0.149,0.135,0.215,0.209,0.213,0.120,0.078,northeast,0.6,No
2022/10/17,23:40,0.149,0.136,0.215,0.209,0.211,0.119,0.079,northeast,2.3,Yes
2022/10/17,23:50,0.149,0.134,0.214,0.206,0.214,0.118,0.078,north,2.7,Yes
